スペースウォッチ-パンスターズ彗星

P/2014 MG4 ( Spacewatch-PanSTARRS ) 2024

English version
Home page
Updated on November 4, 2020

---------------------------------------------------------------------

・ プロフィール

・ 軌道要素

Epoch 2024 Sept. 7.0 TT = JDT 2460560.5
T 2024 Sept. 6.66006 TT                                 MPCW
q   3.7168553            (2000.0)            P               Q
n   0.08778419     Peri.  298.93659     -0.32297200     +0.93857592
a   5.0140868      Node   311.69252     -0.80178032     -0.33956509
e   0.2587174      Incl.    9.36492     -0.50282939     -0.06140678
P  11.23
From 183 observations 2014 June 20-2016 Nov. 6, mean residual 0".5.

・ 光度変化

        m1 = 4.0 + 5 logΔ + 20.0 log r(t - 500)

---------------------------------------------------------------------

軌道要素はM.P.E.C. 2016-V116に掲載されたものです。
光度グラフはComet for Windowsで作成したものです。

---------------------------------------------------------------------

Copyright(C) Seiichi Yoshida (comet@aerith.net). All rights reserved.